AirNav   TITAN Aviation Fuels
 
 487 users online  

31AZ Benson Airport
Benson, Arizona, USA

GOING TO BENSON?


FAA INFORMATION EFFECTIVE 19 MAY 2022

Location

FAA Identifier: 31AZ
Lat/Long: 31-57-49.3000N 110-15-35.2610W
31-57.821667N 110-15.587683W
31.9636944,-110.2597947
(estimated)
Elevation: 3628 ft. / 1105.8 m (surveyed)
Variation: 12E (1985)
From city: 2 miles E of BENSON, AZ
Time zone: UTC -7 (year round; does not observe DST)
Zip code: 85602

Airport Operations

Airport use: Private use. Permission required prior to landing
Activation date: 02/1947
Control tower: no
ARTCC: ALBUQUERQUE CENTER
FSS: PRESCOTT FLIGHT SERVICE STATION
Attendance: UNATNDD
Wind indicator: yes
Segmented circle: no

Airport Communications

WX AWOS-3 at E95 (5 nm NW): 118.475 (520-265-5232)

Nearby radio navigation aids

VOR radial/distance  VOR name  Freq  Var
FHUr359/23.0LIBBY VOR/DME113.6013E
TUSr091/34.2TUCSON VORTAC116.0012E

Airport Services

Fuel available: 100
Airframe service: NONE
Powerplant service: NONE
Bottled oxygen: NONE
Bulk oxygen: NONE

Runway Information

Runway 8/26

Dimensions: 4800 x 140 ft. / 1463 x 43 m
Surface: dirt, in fair condition
RUNWAY 8  RUNWAY 26
Traffic pattern: leftleft
Runway end identifier lights: nono
Obstructions: pline, 300 ft. from runway, 6:1 slope to clear
5' BRUSH AT THR; 4' BANK; AND 5' FENCE 110' FROM W END.
none

Airport Ownership and Management from official FAA records

Ownership: Privately-owned
Owner: BEN A TAYLOR
BOX 54
BENSON, AZ 85602
Phone 602-586-3421
Manager: BEN A TAYLOR
BOX 54
BENSON, AZ 85602
Phone 602-586-3421

Airport Operational Statistics

Aircraft based on the field: 8
Single engine airplanes: 8
    
Aircraft operations: avg 58/month *
71% military
14% transient general aviation
14% local general aviation
* for 12-month period ending 05 October 1990

Additional Remarks

USE AT PILOTS OWN RISK--PRIOR CONTACT RECOMMENDED.
GOPHER HOLES, SLICK & MUDDY WHEN WET
FOR CD CTC ALBUQUERQUE ARTCC AT 505-856-4861.

Instrument Procedures

There are no published instrument procedures at 31AZ.

Some nearby airports with instrument procedures:

KFHU - Sierra Vista Municipal Airport-Libby Army Airfield (23 nm S)
P33 - Cochise County Airport (25 nm NE)
KDMA - Davis Monthan Air Force Base (34 nm W)
KTUS - Tucson International Airport (36 nm W)
KOLS - Nogales International Airport (44 nm SW)
 
Loc | Ops | Rwys | IFR | FBO | Links
Com | Nav | Svcs | Stats | Notes
Area around 31AZ (Benson Airport)
 
Road maps at: MapQuest Bing Google
 
Aerial photo
No photo
 
Sectional chart

 
Airport distance calculator
Flying to Benson Airport? Find the distance to fly.

From to 31AZ

Sunrise and sunset
Times for 23-May-2022
 Local
(UTC-7)
 Zulu
(UTC)
Morning civil twilight04:5311:53
Sunrise05:2012:20
Sunset19:1502:15
Evening civil twilight19:4302:43

Current date and time
Zulu (UTC)  23-May-2022 08:58:26
Local (UTC-7)  23-May-2022 01:58:26
 
METAR
KFHU 
22nm S 
230758Z AUTO 29009KT 10SM CLR 18/00 A3008 RMK AO2 SLP115 T01790002
KALK 
23nm S 
230756Z AUTO 26008KT 10SM CLR 16/01 A3009 RMK AO2 SLP101 T01610006
KDMA 
33nm W 
230758Z AUTO 00000KT 10SM CLR 21/M01 A2994 RMK AO2 SLP095 T02141006 $
KTUS 
37nm W 
230853Z 13005KT 10SM CLR 22/00 A2996 RMK AO2 SLP099 T02170000 58008 $
TAF
KFHU 
22nm S 
230600Z 2306/2412 26014KT 9999 SKC QNH3007INS BECMG 2307/2308 VRB06KT 9999 SKC QNH3005INS BECMG 2316/2317 21010G15KT 9999 SKC 510005 QNH2999INS BECMG 2318/2319 23012G18KT 9999 SKC 510005 QNH2988INS TEMPO 2321/2324 24015G25KT 520005 BECMG 2400/2401 27010G17KT 9999 SKC 510005 QNH2989INS BECMG 2406/2407 23006KT 9999 SKC QNH2994INS TX31/2322Z TN15/2312Z
NOTAMs
Click for the latest NOTAMs
NOTAMs are issued by the DoD/FAA and will open in a separate window not controlled by AirNav.

 

 
 

Would you like to see your business listed on this page?

 If your business provides an interesting product or service to pilots, flight crews, aircraft, or users of the Benson Airport, you should consider listing it here.  To start the listing process, click on the button below
 
Add a business
 

Other Pages about Benson Airport

Update a link
 
Copyright © AirNav, LLC. All rights reserved. Privacy Policy  Contact